Diretta Meteo Rimini, Italiasabato 24 giugno ore 15:45

Mappa
Sereno 30 °C Sereno 24 Ore: T.min 22 T.max 33
Ponente Est Km/h 18.5 Punto di rugiada: 24 °C Umidità: 70% Visibilità: 10 Km
Il sole sorge alle: 05:25 Il sole tramonta alle: 20:58
24 Giugno 2017 15:45 tempo osservato: Sereno Sereno 30 70 1013 vento: Nord E 18.5
24 Giugno 2017 15:15 tempo osservato: Sereno Sereno 31 66 1013 vento: Nord E 20.3
24 Giugno 2017 14:45 tempo osservato: Sereno Sereno 31 62 1013 vento: Nord E 20.3
24 Giugno 2017 14:15 tempo osservato: Sereno Sereno 31 55 1014 vento: Nord E 20.3
24 Giugno 2017 13:45 tempo osservato: Sereno Sereno 31 58 1014 vento: Nord E 20.3
24 Giugno 2017 13:15 tempo osservato: Sereno Sereno 33 52 1014 vento: Nord E/NE 16.7
24 Giugno 2017 12:45 tempo osservato: Sereno Sereno 33 49 1014 vento: Nord NE 14.8
24 Giugno 2017 12:15 tempo osservato: Sereno Sereno 33 49 1014 vento: Nord NE 13
24 Giugno 2017 11:45 tempo osservato: Sereno Sereno 33 46 1014 vento: Nord N/NE 13
24 Giugno 2017 11:15 tempo osservato: Sereno Sereno 33 49 1015 vento: Nord NE 11.1
24 Giugno 2017 10:45 tempo osservato: Sereno Sereno 32 52 1015 vento: Nord NE 7.4
24 Giugno 2017 10:15 tempo osservato: Sereno Sereno 32 49 1015 vento: Nord NE 7.4
24 Giugno 2017 09:45 tempo osservato: Sereno Sereno 31 52 1015 vento: Nord N 3.7
24 Giugno 2017 09:15 tempo osservato: Sereno Sereno 30 51 1015 vento: Nord N 0
24 Giugno 2017 08:45 tempo osservato: Sereno Sereno 29 54 1014 vento: Nord N 0
24 Giugno 2017 08:15 tempo osservato: Sereno Sereno 27 61 1014 vento: Nord N 1.8
24 Giugno 2017 07:45 tempo osservato: Sereno Sereno 24 78 1014 vento: Nord N 3.7
24 Giugno 2017 07:15 tempo osservato: Sereno Sereno 23 78 1014 vento: Nord N 5.5
24 Giugno 2017 06:45 tempo osservato: Sereno Sereno 23 78 1014 vento: Nord N 0
24 Giugno 2017 06:15 tempo osservato: Sereno Sereno 23 78 1014 vento: Nord N 0
24 Giugno 2017 05:45 tempo osservato: Sereno Sereno 23 78 1014 vento: Nord N 0
24 Giugno 2017 05:15 tempo osservato: Sereno Sereno 23 78 1014 vento: Nord N 0
24 Giugno 2017 04:45 tempo osservato: Sereno Sereno 23 78 1014 vento: Nord N 0
24 Giugno 2017 04:15 tempo osservato: Sereno Sereno 24 78 1013 vento: Nord N 0
24 Giugno 2017 03:45 tempo osservato: Sereno Sereno 24 78 1013 vento: Nord N 0
24 Giugno 2017 03:15 tempo osservato: Sereno Sereno 24 78 1013 vento: Nord N 0
24 Giugno 2017 02:45 tempo osservato: Sereno Sereno 24 78 1013 vento: Nord N 0
24 Giugno 2017 00:15 tempo osservato: Sereno Sereno 27 74 1013 vento: Nord N 1.8
23 Giugno 2017 23:45 tempo osservato: Sereno Sereno 27 74 1013 vento: Nord N 1.8
23 Giugno 2017 23:15 tempo osservato: Sereno Sereno 22 73 1014 vento: Nord N 3.7
23 Giugno 2017 22:45 tempo osservato: Sereno Sereno 27 83 1013 vento: Nord N 0
23 Giugno 2017 22:15 tempo osservato: Sereno Sereno 27 83 1013 vento: Nord N 3.7
23 Giugno 2017 21:45 tempo osservato: Sereno Sereno 28 83 1013 vento: Nord N 0
23 Giugno 2017 21:15 tempo osservato: Sereno Sereno 28 83 1013 vento: Nord N 5.5
23 Giugno 2017 20:45 tempo osservato: Sereno Sereno 29 79 1013 vento: Nord E 9.3
23 Giugno 2017 20:15 tempo osservato: Sereno Sereno 29 74 1013 vento: Nord E 14.8
23 Giugno 2017 19:45 tempo osservato: Sereno Sereno 29 74 1013 vento: Nord E 16.7
23 Giugno 2017 19:15 tempo osservato: Sereno Sereno 29 74 1013 vento: Nord E 18.5
23 Giugno 2017 18:45 tempo osservato: Sereno Sereno 29 70 1013 vento: Nord E 20.3
23 Giugno 2017 18:15 tempo osservato: Sereno Sereno 30 66 1013 vento: Nord E 24
23 Giugno 2017 17:45 tempo osservato: Sereno Sereno 30 66 1013 vento: Nord E 27.8
23 Giugno 2017 17:15 tempo osservato: Sereno Sereno 31 66 1013 vento: Nord E 29.6
23 Giugno 2017 16:45 tempo osservato: Sereno Sereno 30 62 1013 vento: Nord E 22.2
23 Giugno 2017 16:15 tempo osservato: Sereno Sereno 32 59 1014 vento: Nord E 20.3
23 Giugno 2017 15:45 tempo osservato: Sereno Sereno 32 59 1014 vento: Nord E/NE 20.3